Preview of NWS' New Version of Forecast
This preview is not operational and should not be used for support decisions.

Regional Weather Roundup (RWR)

Issued by National Weather Service (NWS)

                            
000
ASUS46 KSEW 160910
RWRWA 

WASHINGTON REGIONAL WEATHER ROUNDUP
NATIONAL WEATHER SERVICE SEATTLE WA
200 AM PDT TUE JUL 16 2019

NOTE:"FAIR" INDICATES FEW OR NO CLOUDS BELOW 12,000 FEET WITH NO 
SIGNIFICANT WEATHER AND/OR OBSTRUCTIONS TO VISIBILITY.

WAZ507-509-555>559-161000-
SEATTLE, TACOMA, EVERETT, AND VICINITY
  
CITY           SKY/WX    TMP DP  RH WIND       PRES   REMARKS
EVERETT        CLOUDY    61  55  81 N7        30.05F                  
BOEING FIELD   MOCLDY    65  58  78 NW3       30.03F                  
RENTON         CLOUDY    66  60  81 S3        30.03S                  
SEATAC AIRPORT MOCLDY    63  58  83 SW3       30.04F                  
JBLM-MCCHORD   MOCLDY    61  61 100 CALM      30.04F                  
PUYALLUP       CLOUDY    63  63 100 CALM      30.05F                  
BREMERTON      PTCLDY    58  56  93 SE3       30.04F                  
JBLM-FT LEWIS  NOT AVBL                                               
TACOMA NARROWS PTCLDY    61  58  90 CALM      30.05S                  
$$
 
WAZ001-503-506-510-514-515-161000-
NORTH INTERIOR
  
CITY           SKY/WX    TMP DP  RH WIND       PRES   REMARKS
BELLINGHAM     CLEAR     63  52  67 S7        30.02S                  
FRIDAY HARBOR  CLEAR     51  50  96 CALM      30.03F                  
EASTSOUND      CLEAR     59  55  88 S7        30.01S                  
PORT ANGELES   CLEAR     54  54 100 SW3       30.04F                  
EDIZ HOOK      FAIR      56  55  94 W10       30.03F                  
PORT TOWNSEND  FAIR      52  52 100 CALM      30.03F                  
NAS WHIDBEY    PTCLDY    59  54  83 CALM      30.07F                  
ARLINGTON      CLOUDY    57  54  89 N3        30.05F                  
BURLINGTON     PTCLDY    55  54  94 CALM      30.05S                  
$$
 
WAZ020-022-039-040-504-511-512-161000-
SOUTHWEST INTERIOR
  
CITY           SKY/WX    TMP DP  RH WIND       PRES   REMARKS
SHELTON        PTCLDY    58  54  86 CALM      30.02F                  
OLYMPIA        CLOUDY    62  59  90 CALM      30.03F                  
CHEHALIS       FOG       59  59 100 CALM      30.05S VSB 1/4          
KELSO          CLOUDY    64  60  87 CALM      30.05F                  
VANCOUVER      CLOUDY    66  59  78 NW3       30.03S                  
SCAPPOOSE, OR  CLOUDY    65  59  81 NW3       30.02F                  
PORTLAND, OR   CLOUDY    67  59  75 NW5       30.03F                  
$$
 
WAZ021-516-517-161000-
WASHINGTON COAST
  
CITY           SKY/WX    TMP DP  RH WIND       PRES   REMARKS
FORKS          CLOUDY    59  58  96 CALM      30.04F                  
HOQUIAM        MOCLDY    62  61  96 CALM      30.04F                  
ASTORIA, OR    CLOUDY   N/A N/A N/A S5        30.04S                  
$$
 
WAZ019-023-024-040-567>569-161000-
CASCADE MOUNTAINS AND COLUMBIA GORGE
  
CITY           SKY/WX    TMP DP  RH WIND       PRES   REMARKS
STAMPEDE PASS  LGT RAIN  52  50  93 VRB3      30.09F VSB 1/4          
TROUTDALE, OR  CLOUDY    67  61  81 W3        30.02F                  
HOOD RIVER, OR MOSUNNY   64  55  72 NW5       30.01F                  
THE DALLES, OR PTCLDY    67  56  67 W8        29.99S                  
$$

WAZ026-027-041>044-520-521-161000-
EAST SLOPES
  
CITY           SKY/WX    TMP DP  RH WIND       PRES   REMARKS
OMAK           CLOUDY    66  51  58 N9        29.96S                  
WENATCHEE      CLEAR     64  49  57 W7        29.95F                  
ELLENSBURG     CLEAR     60  51  72 NW12      30.00S                  
YAKIMA         CLEAR     61  52  72 SW6       29.98F                  
SUNNYSIDE ARPT MOSUNNY   58  56  92 NE3       29.97F                  
YAKIMA TC      FAIR      60  48  64 E3        29.98F                  
$$

WAZ028-034-035-161000-
COLUMBIA BASIN
  
CITY           SKY/WX    TMP DP  RH WIND       PRES   REMARKS
EPHRATA        CLEAR     67  47  48 W5        29.93F                  
MOSES LAKE     CLEAR     65  52  62 SW6       29.95S                  
PASCO          MOCLDY    66  54  65 SW7       29.96S                  
RICHLAND ARPT  PTSUNNY   64  55  73 CALM      29.96                   
HERMISTON, OR  MOCLDY    68  53  58 SW10      29.96F                  
$$

WAZ036>038-161000-
NORTHEAST WASHINGTON
  
CITY           SKY/WX    TMP DP  RH WIND       PRES   REMARKS
SPOKANE GEIGER MOCLDY    62  47  57 SE6       29.99F                  
SPOKANE FELTS  CLOUDY    63  55  75 CALM      29.99F                  
FAIRCHILD AFB  CLOUDY    59  49  71 CALM      29.99F                  
COEURDALENE,ID MOCLDY    60  54  80 NE3       30.01S                  
DEER PARK      CLOUDY    57  52  83 E3        30.00S                  
$$

WAZ029>033-161000-
SOUTHEAST WASHINGTON
  
CITY           SKY/WX    TMP DP  RH WIND       PRES   REMARKS
PULLMAN        PTCLDY    54  49  83 CALM      30.03S                  
LEWISTON, ID   MOCLDY    61  53  75 CALM      29.98F                  
WALLA WALLA    MOCLDY    66  49  54 S10       29.99S                  
PENDLETON, OR  MOCLDY    65  49  56 SW5       29.99F                  
$$